Location: Heilbronn
(49.1548°N, 9.2780°E)
Time: 21:25:30
(UTC+01:00)

ISS - Pass Details

Date: 18 November 2017
Orbit: 402 x 407 km, 51.6° (Epoch: 24 November)

Event Time Altitude Azimuth Distance (km) Brightness Sun altitude
Exits shadow 05:31:15 11° 185° (S) 1,380 -1.1 -20.4°
Drops below altitude 10° 05:31:32 10° 181° (S) 1,448 -1.0 -20.3°
Sets 05:34:08 0° 159° (SSE) 2,302 0.4 -19.9°
